Weather History for Harlan, KY

Change the Weather History Date:

Wednesday, May 22, 2013

  Actual Average (KLOZ) Record (KLOZ)
Temperature  
Mean Temperature 72 °F 66 °F  
Max Temperature 86 °F 78 °F 88 °F (1956)
Min Temperature 59 °F 55 °F 33 °F (2002)
Degree Days  
Heating Degree Days 0 2  
Month to date heating degree days 80  
Since 1 July heating degree days 4181  
Cooling Degree Days 8 4  
Month to date cooling degree days 49  
Year to date cooling degree days 75  
Growing Degree Days 22 (Base 50)    
Moisture  
Dew Point 60 °F    
Average Humidity 80    
Maximum Humidity 100    
Minimum Humidity 39    
Precipitation  
Precipitation 0.00 in 0.16 in 1.58 in (1957)
Month to date precipitation 3.65  
Year to date precipitation 19.00  
Sea Level Pressure  
Sea Level Pressure 29.94 in    
Wind  
Wind Speed 1 mph (SW)    
Max Wind Speed 20 mph    
Max Gust Speed 41 mph    
Visibility 7 miles    
Events      
T = Trace of Precipitation, MM = Missing Value Source: NWS Daily Summary

Daily Weather History Graph

Daily Weather History Graph

Search for Another Location

Airport:

Trip Planner

Search our weather history database for the weather conditions in past years. The results will help you decide how hot, cold, wet, or windy it might be!

Date:

Astronomy

May. 22, 2013 Rise Set
Actual Time 6:20 AM EDT 8:40 PM EDT
Civil Twilight 5:51 AM EDT 9:09 PM EDT
Nautical Twilight 5:14 AM EDT 9:46 PM EDT
Astronomical Twilight 4:35 AM EDT 10:26 PM EDT
Moon 6:04 PM EDT (5/22) 4:19 AM EDT (5/22)
Length of Visible Light 15h 18m
Length of Day
14h 19m
Waxing Gibbous, 91% of the Moon is Illuminated
May 22
Waxing Gibbous
May 25
Full
May 31
Last Quarter
Jun 8
New
Jun 16
First Quarter

Hourly Weather History & Observations

Time (EDT) Temp. Heat Index Dew Point Humidity Pressure Visibility Wind Dir Wind Speed Gust Speed Precip Events Conditions
12:15 AM 60.8 °F - 59.0 °F 94% 30.01 in 7.0 mi Calm Calm - N/A   Clear
12:35 AM 62.6 °F - 59.0 °F 88% 30.00 in 10.0 mi Calm Calm - N/A   Clear
12:55 AM 60.8 °F - 59.0 °F 94% 29.99 in 1.5 mi Calm Calm - N/A   Mostly Cloudy
1:15 AM 60.8 °F - 59.0 °F 94% 29.99 in 1.5 mi Calm Calm - N/A   Mostly Cloudy
1:35 AM 60.8 °F - 59.0 °F 94% 29.98 in 10.0 mi Calm Calm - N/A   Scattered Clouds
1:55 AM 60.8 °F - 59.0 °F 94% 29.98 in 10.0 mi Calm Calm - N/A   Clear
2:15 AM 60.8 °F - 59.0 °F 94% 29.97 in 2.0 mi Calm Calm - N/A   Scattered Clouds
2:35 AM 60.8 °F - 59.0 °F 94% 29.96 in 2.5 mi Calm Calm - N/A   Scattered Clouds
2:55 AM 59.0 °F - 59.0 °F 100% 29.96 in 4.0 mi Calm Calm - N/A   Scattered Clouds
3:15 AM 59.0 °F - 59.0 °F 100% 29.95 in 1.5 mi Calm Calm - N/A   Scattered Clouds
3:35 AM 59.0 °F - 59.0 °F 100% 29.95 in 2.0 mi Calm Calm - N/A   Overcast
3:55 AM 59.0 °F - 59.0 °F 100% 29.95 in 2.0 mi Calm Calm - N/A   Overcast
4:15 AM 59.0 °F - 59.0 °F 100% 29.95 in 0.8 mi Calm Calm - N/A   Overcast
4:35 AM 59.0 °F - 57.2 °F 94% 29.94 in 1.2 mi Calm Calm - N/A   Overcast
4:55 AM 59.0 °F - 57.2 °F 94% 29.95 in 0.8 mi Calm Calm - N/A   Overcast
5:15 AM 59.0 °F - 57.2 °F 94% 29.95 in 0.5 mi Calm Calm - N/A   Overcast
5:35 AM 59.0 °F - 57.2 °F 94% 29.95 in 1.2 mi Calm Calm - N/A   Overcast
5:55 AM 59.0 °F - 57.2 °F 94% 29.95 in 1.5 mi Calm Calm - N/A   Mostly Cloudy
6:15 AM 59.0 °F - 57.2 °F 94% 29.96 in 0.5 mi Calm Calm - N/A   Overcast
6:35 AM 59.0 °F - 57.2 °F 94% 29.96 in 2.0 mi Calm Calm - N/A   Overcast
6:55 AM 59.0 °F - 57.2 °F 94% 29.96 in 0.2 mi Calm Calm - N/A   Overcast
7:15 AM 59.0 °F - 59.0 °F 100% 29.96 in 1.0 mi Calm Calm - N/A   Mostly Cloudy
7:35 AM 60.8 °F - 59.0 °F 94% 29.97 in 1.0 mi Calm Calm - N/A   Mostly Cloudy
7:55 AM 60.8 °F - 59.0 °F 94% 29.97 in 10.0 mi Calm Calm - N/A   Scattered Clouds
8:15 AM 60.8 °F - 59.0 °F 94% 29.97 in 4.0 mi Calm Calm - N/A   Mostly Cloudy
8:35 AM 64.4 °F - 60.8 °F 88% 29.97 in 10.0 mi Calm Calm - N/A   Mostly Cloudy
8:55 AM 64.4 °F - 62.6 °F 94% 29.97 in 10.0 mi Calm Calm - N/A   Scattered Clouds
9:15 AM 68.0 °F - 62.6 °F 83% 29.97 in 10.0 mi Calm Calm - N/A   Scattered Clouds
9:35 AM 69.8 °F - 60.8 °F 73% 29.98 in 10.0 mi Calm Calm - N/A   Mostly Cloudy
9:55 AM 69.8 °F - 62.6 °F 78% 29.97 in 10.0 mi ENE 3.5 mph - N/A   Overcast
10:15 AM 73.4 °F - 60.8 °F 65% 29.97 in 10.0 mi Calm Calm - N/A   Mostly Cloudy
10:35 AM 75.2 °F - 62.6 °F 65% 29.96 in 10.0 mi East 3.5 mph - N/A   Overcast
10:55 AM 77.0 °F - 62.6 °F 61% 29.97 in 10.0 mi Calm Calm - N/A   Overcast
11:15 AM 73.4 °F - 60.8 °F 65% 29.97 in 10.0 mi SE 3.5 mph - N/A   Overcast
11:35 AM 73.4 °F - 60.8 °F 65% 29.97 in 10.0 mi South 4.6 mph - N/A   Overcast
11:55 AM 77.0 °F - 62.6 °F 61% 29.97 in 10.0 mi SSE 4.6 mph - N/A   Overcast
12:15 PM 77.0 °F - 62.6 °F 61% 29.96 in 10.0 mi Calm Calm - N/A   Scattered Clouds
12:35 PM 78.8 °F - 62.6 °F 57% 29.96 in 10.0 mi South 5.8 mph - N/A   Clear
12:55 PM 80.6 °F 82.3 °F 64.4 °F 58% 29.95 in 10.0 mi SSW 4.6 mph - N/A   Scattered Clouds
1:15 PM 80.6 °F 81.8 °F 62.6 °F 54% 29.95 in 10.0 mi South 4.6 mph - N/A   Mostly Cloudy
1:35 PM 82.4 °F 82.9 °F 60.8 °F 48% 29.94 in 10.0 mi SSW 3.5 mph - N/A   Mostly Cloudy
1:55 PM 80.6 °F 81.5 °F 60.8 °F 51% 29.94 in 10.0 mi Calm Calm - N/A   Mostly Cloudy
2:15 PM 80.6 °F 81.1 °F 59.0 °F 48% 29.93 in 10.0 mi West 5.8 mph 16.1 mph N/A   Mostly Cloudy
2:35 PM 82.4 °F 82.5 °F 59.0 °F 45% 29.92 in 10.0 mi West 9.2 mph - N/A   Scattered Clouds
2:55 PM 82.4 °F 82.5 °F 59.0 °F 45% 29.91 in 7.0 mi WSW 4.6 mph - N/A   Scattered Clouds
3:15 PM 82.4 °F 81.7 °F 55.4 °F 39% 29.90 in 10.0 mi SW 5.8 mph - N/A   Clear
3:35 PM 82.4 °F 82.5 °F 59.0 °F 45% 29.89 in 10.0 mi SW 3.5 mph - N/A   Clear
3:55 PM 86.0 °F 85.4 °F 59.0 °F 40% 29.89 in 10.0 mi West 10.4 mph - N/A   Scattered Clouds
4:15 PM 80.6 °F 81.5 °F 60.8 °F 51% 29.88 in 10.0 mi WNW 9.2 mph - N/A   Scattered Clouds
4:35 PM 80.6 °F 81.5 °F 60.8 °F 51% 29.87 in 10.0 mi WSW 3.5 mph - N/A   Scattered Clouds
4:55 PM 78.8 °F - 60.8 °F 54% 29.88 in 10.0 mi West 4.6 mph - N/A   Clear
5:15 PM 80.6 °F 81.5 °F 60.8 °F 51% 29.86 in 10.0 mi Calm Calm - N/A   Scattered Clouds
5:35 PM 78.8 °F - 60.8 °F 54% 29.86 in 10.0 mi Calm Calm - N/A   Scattered Clouds
5:55 PM 68.0 °F - 60.8 °F 78% 29.92 in 0.2 mi NNW 19.6 mph 41.4 mph N/A   Overcast
6:15 PM 64.4 °F - 60.8 °F 88% 29.90 in 10.0 mi Calm Calm - N/A   Mostly Cloudy
6:35 PM 66.2 °F - 62.6 °F 88% 29.89 in 10.0 mi Calm Calm - N/A   Clear
6:55 PM 64.4 °F - 62.6 °F 94% 29.89 in 10.0 mi Calm Calm - N/A   Clear
7:15 PM 66.2 °F - 62.6 °F 88% 29.89 in 10.0 mi Calm Calm - N/A   Scattered Clouds
7:35 PM 66.2 °F - 62.6 °F 88% 29.89 in 10.0 mi Calm Calm - N/A   Scattered Clouds
7:55 PM 64.4 °F - 62.6 °F 94% 29.89 in 10.0 mi Calm Calm - N/A   Scattered Clouds
8:15 PM 64.4 °F - 62.6 °F 94% 29.91 in 10.0 mi Calm Calm - N/A   Mostly Cloudy
8:35 PM 64.4 °F - 62.6 °F 94% 29.91 in 10.0 mi Calm Calm - N/A   Overcast
8:55 PM 64.4 °F - 62.6 °F 94% 29.91 in 10.0 mi North 5.8 mph - N/A   Overcast
9:15 PM 64.4 °F - 62.6 °F 94% 29.91 in 10.0 mi ENE 3.5 mph - N/A   Mostly Cloudy
9:35 PM 66.2 °F - 60.8 °F 83% 29.91 in 10.0 mi Calm Calm - N/A   Mostly Cloudy
9:55 PM 66.2 °F - 60.8 °F 83% 29.92 in 10.0 mi Calm Calm - N/A   Overcast
10:15 PM 64.4 °F - 62.6 °F 94% 29.95 in 3.0 mi North 3.5 mph - N/A   Overcast
10:35 PM 62.6 °F - 62.6 °F 100% 29.94 in 1.8 mi Calm Calm - N/A   Overcast
10:55 PM 62.6 °F - 62.6 °F 100% 29.94 in 2.0 mi Calm Calm - N/A   Overcast
11:15 PM 62.6 °F - 62.6 °F 100% 29.94 in 3.0 mi Calm Calm - N/A   Overcast
11:35 PM 62.6 °F - 60.8 °F 94% 29.94 in 7.0 mi Calm Calm - N/A   Overcast
11:55 PM 62.6 °F - 60.8 °F 94% 29.94 in 7.0 mi Calm Calm - N/A   Overcast